Theta_e
307 307 307 307 308 308 308 308 307 307 307 307 307 307 307 307 307 307 307 307 307 307 308 308 308 308 308 309 309 309 309 309 308 308 308 308 308 307 307 307 307 307
307 307 307 308 308 308 308 307 307 307 307 307 307 307 307 307 307 307 307 307 307 306 307 308 308 308 309 309 309 309 309 308 308 308 308 307 307 307 307 306 306 306
307 307 307 308 308 308 308 307 307 307 307 307 307 307 306 306 306 306 307 307 307 307 307 307 308 308 308 308 309 309 308 308 308 308 307 307 307 306 306 306 306 305
307 307 307 308 308 308 308 307 307 307 307 307 307 307 306 306 306 306 307 307 307 307 307 307 307 308 308 308 308 308 308 308 308 307 307 307 306 306 306 305 305 305
307 307 307 308 308 308 307 307 307 307 307 307 307 307 307 306 307 307 307 307 307 307 307 306 306 307 307 307 307 307 308 308 308 307 307 307 306 306 306 305 305 305
307 307 307 307 308 308 308 307 307 307 307 307 307 307 307 307 307 306 307 306 306 307 307 306 306 306 306 307 307 307 307 308 308 307 307 307 306 306 306 305 305 305
307 307 307 307 308 308 308 307 308 308 307 307 307 307 307 307 307 306 306 306 306 306 306 306 306 306 306 306 307 307 307 307 307 307 307 307 306 306 305 305 305 305
308 308 307 307 307 308 308 308 308 308 308 308 307 307 307 306 306 306 306 306 306 306 306 306 306 306 306 306 306 307 307 307 307 307 307 307 306 306 305 305 305 305
309 308 307 307 307 307 308 308 308 308 307 307 307 307 307 306 306 306 306 306 306 306 306 306 306 306 305 305 306 306 307 307 307 307 307 307 306 306 306 305 305 304
310 309 308 308 307 307 307 307 308 308 307 307 307 307 307 306 306 306 306 306 306 306 306 306 306 306 306 305 305 305 306 306 307 307 306 306 306 306 306 305 305 304
310 310 309 309 308 308 308 307 307 307 307 307 307 306 307 306 306 306 306 306 306 306 306 306 306 306 306 306 305 305 305 305 305 306 306 306 306 306 306 305 305 304
310 310 310 309 309 309 308 308 307 307 307 307 306 306 306 306 306 306 306 306 306 306 305 305 306 306 306 306 305 304 304 304 304 304 305 305 305 305 305 305 304 304
310 309 310 309 309 309 309 308 308 308 307 307 307 307 306 306 306 306 305 305 305 305 305 305 305 306 306 306 305 304 304 303 303 303 303 304 304 305 304 304 304 303
309 309 309 309 309 309 309 309 309 308 308 308 308 307 307 306 306 306 305 305 305 305 305 305 305 305 306 306 305 305 304 303 303 303 302 303 303 304 304 303 303 302
309 309 309 309 309 309 309 309 308 308 308 308 308 307 307 306 306 306 305 305 305 305 305 305 305 305 305 305 305 305 304 303 303 302 302 302 302 303 303 303 303 302
308 308 309 309 309 309 309 308 308 308 308 308 307 307 307 307 306 306 306 306 305 305 305 305 305 305 305 305 305 305 304 303 303 302 302 301 301 302 302 302 302 302
307 307 308 308 308 308 308 308 308 308 308 308 307 307 307 307 306 306 306 306 306 306 305 305 305 305 305 305 304 304 304 303 303 302 302 301 301 301 301 301 302 301
306 306 306 307 307 307 307 307 307 307 307 307 307 307 307 306 306 306 306 306 305 305 305 305 305 305 304 304 304 303 303 303 302 302 302 301 301 300 300 300 300 300
306 306 306 306 306 306 306 306 306 306 306 306 305 305 305 305 305 305 305 305 305 305 305 304 304 304 304 304 303 303 302 302 302 301 301 301 300 300 300 300 299 299
306 305 305 305 305 305 305 305 305 306 305 305 305 305 305 305 305 304 304 304 304 304 304 304 304 303 303 303 302 302 302 301 301 301 300 300 300 300 299 299 299 298
305 305 304 305 305 305 305 305 305 306 306 306 305 305 305 305 305 305 304 304 304 304 304 303 303 303 303 302 302 301 301 300 300 300 299 299 299 298 298 298 298 297
304 304 304 305 305 305 305 306 306 306 306 306 305 305 305 305 306 306 305 305 304 304 303 303 303 302 302 301 301 300 300 299 299 299 298 298 298 298 297 297 297 296
304 304 304 304 304 305 305 305 306 305 305 305 305 305 305 306 306 306 305 304 304 304 303 303 303 302 301 301 300 299 299 298 298 298 297 297 297 297 296 296 295 294
304 304 304 304 304 304 305 305 305 305 304 304 305 305 305 305 305 304 304 304 304 303 303 302 302 301 301 300 299 298 298 297 297 297 296 296 296 295 295 294 293 292
304 303 303 303 304 304 304 304 304 304 304 304 304 304 304 304 304 303 303 303 303 303 302 301 301 301 300 299 299 298 297 296 296 295 295 295 294 294 294 293 292 291
303 303 303 303 303 304 304 304 304 304 304 304 304 304 303 303 303 303 303 302 302 302 301 301 300 299 299 298 298 297 296 296 295 294 294 294 293 293 293 292 292 291
Wind_Speed
32 31 31 30 30 29 27 27 27 27 27 26 26 25 24 24 24 24 25 24 24 24 25 25 24 24 24 24 24 23 23 23 23 23 23 23 23 23 23 22 22 22
33 32 32 32 31 30 29 28 27 28 28 27 26 24 23 23 24 24 25 25 25 25 26 26 26 26 26 26 26 26 25 25 25 25 25 25 25 24 24 23 23 23
34 34 34 33 31 30 29 28 28 28 28 28 27 25 24 23 23 24 25 26 27 27 27 27 28 28 28 28 28 28 27 27 26 26 26 26 25 25 25 24 24 23
34 35 34 33 31 30 30 30 30 29 29 30 29 27 26 24 24 24 26 27 29 29 29 29 30 30 30 30 30 30 29 28 27 27 27 27 27 26 26 25 25 24
34 35 34 33 32 32 32 32 30 30 30 30 29 28 27 26 26 26 26 28 30 31 31 31 31 32 32 32 31 31 31 30 30 29 29 29 29 28 28 28 27 26
34 34 34 33 33 33 34 33 31 30 30 30 29 30 29 28 28 28 27 28 29 31 32 33 33 34 34 33 33 33 33 33 32 31 31 31 31 30 30 30 29 29
34 34 34 34 34 35 35 34 32 31 30 30 31 31 31 31 31 30 29 29 30 31 32 34 35 35 35 35 35 35 35 35 35 34 34 33 33 33 32 32 32 31
32 33 34 35 35 36 36 35 34 32 31 32 33 34 33 33 33 32 31 31 31 32 32 33 34 36 36 37 37 37 37 37 38 37 36 36 36 35 34 34 34 33
31 33 34 35 36 37 37 36 34 34 34 35 35 35 35 35 35 34 34 34 34 34 34 33 34 36 37 39 39 40 40 40 40 40 39 39 38 37 37 36 36 36
31 32 34 35 37 37 37 37 36 36 36 37 37 37 37 37 36 36 37 37 36 36 35 35 35 36 38 40 41 41 42 42 42 41 41 41 40 39 39 38 38 38
32 33 34 36 37 37 38 37 37 37 38 38 39 38 38 38 38 38 39 39 38 38 37 37 37 37 38 39 41 42 43 43 43 43 43 42 42 42 41 40 40 40
34 34 35 36 36 36 36 36 37 37 38 39 39 39 39 39 40 40 40 40 40 40 39 39 39 38 38 39 40 42 43 44 44 44 44 44 44 44 43 42 42 41
33 34 34 34 34 34 34 34 35 36 37 38 38 39 40 41 41 41 41 41 41 41 41 40 40 40 39 39 40 42 43 44 45 45 45 45 46 46 45 44 44 43
29 29 30 31 32 33 33 34 34 35 36 36 37 39 40 41 41 41 41 41 41 42 42 41 41 41 40 40 40 41 43 44 45 46 46 47 47 47 46 46 45 45
27 26 27 28 29 31 32 33 33 34 35 35 37 38 39 39 40 40 41 42 42 42 42 42 43 42 41 41 40 41 42 44 45 46 47 47 48 48 47 47 47 46
26 26 26 27 28 29 30 31 31 32 33 34 35 36 37 37 38 39 40 41 42 42 43 43 43 43 42 41 40 40 41 42 44 46 47 48 48 49 49 48 48 48
25 25 24 25 25 26 27 27 28 29 30 32 33 34 35 35 36 38 39 40 40 41 41 42 43 42 41 40 40 40 40 42 43 45 46 48 48 49 49 49 49 49
22 21 21 21 22 22 23 24 25 26 27 29 31 31 33 34 35 36 37 37 38 40 41 41 42 41 40 39 40 40 40 41 43 44 46 47 48 48 48 49 49 50
17 17 17 17 18 18 19 20 22 23 24 25 27 28 30 31 32 34 35 36 37 38 39 40 40 39 39 39 40 40 40 41 43 44 46 47 48 48 48 49 49 50
14 14 14 15 16 17 17 19 20 21 22 23 24 26 28 29 30 31 32 33 35 36 37 38 38 38 38 39 39 39 40 41 42 44 46 47 48 48 48 48 49 49
13 14 14 15 16 17 18 19 20 22 23 24 25 27 27 28 29 30 31 32 33 34 36 37 37 37 37 37 38 38 39 40 42 44 46 47 48 48 48 48 49 49
15 15 15 16 18 19 20 21 22 23 24 25 26 27 28 28 29 30 31 32 33 34 35 36 36 36 36 37 37 37 38 39 42 44 46 47 48 49 48 48 48 48
18 18 18 19 20 21 22 22 23 24 25 25 27 28 28 29 30 31 32 32 33 34 35 36 36 36 36 36 35 36 36 38 41 43 45 47 48 48 48 47 47 47
19 19 20 20 22 23 23 23 24 24 25 25 27 28 29 30 31 31 32 33 34 35 35 36 36 35 35 35 35 35 35 37 39 42 44 46 47 47 47 47 46 47
20 21 22 22 23 24 24 25 25 25 25 26 27 29 30 31 31 32 33 34 34 35 35 35 35 35 35 35 35 35 35 36 37 40 43 45 45 46 46 46 46 46
23 24 24 24 25 25 26 27 26 26 27 28 29 30 30 31 32 33 34 34 34 35 35 35 36 35 35 36 36 35 35 35 36 39 42 43 44 44 45 45 46 46
Wind_Direction
242 245 247 249 249 250 250 249 247 245 243 244 244 244 243 243 243 244 246 249 251 252 252 251 250 250 249 249 249 249 249 249 248 248 247 246 244 243 242 242 242 242
242 244 247 248 248 248 248 248 248 246 244 244 244 244 243 243 243 243 245 247 249 251 252 251 251 251 251 252 251 251 250 249 249 249 249 248 247 245 243 241 241 241
243 244 246 248 249 249 249 249 248 247 246 245 245 245 246 246 247 247 246 246 247 248 249 249 250 250 251 252 252 251 250 250 250 251 251 251 249 248 246 244 242 241
244 245 246 249 251 251 250 250 249 248 247 246 246 247 249 250 251 251 249 248 248 248 249 249 249 249 250 251 252 252 251 251 251 251 252 252 250 250 249 247 245 244
247 247 248 250 251 252 251 250 250 249 249 249 249 250 252 253 254 253 253 252 251 251 251 251 251 251 251 251 252 253 253 252 251 251 252 252 251 251 250 250 248 247
249 248 249 250 251 252 252 251 251 251 251 251 251 252 252 253 254 254 255 256 256 255 254 254 253 253 253 253 253 254 254 254 253 252 253 253 253 252 250 250 249 248
248 248 249 250 251 251 251 252 251 251 252 251 251 251 251 253 254 256 258 259 260 259 258 257 256 255 255 255 254 255 255 254 254 253 252 253 252 252 251 250 249 248
246 247 248 249 250 250 251 251 251 251 251 250 250 250 251 253 255 257 259 260 262 263 262 261 259 257 257 256 255 255 255 255 254 254 253 253 252 252 252 251 250 249
246 246 247 248 249 250 251 251 251 252 252 252 252 253 254 255 257 258 260 262 263 264 265 264 262 259 257 256 255 255 254 254 254 254 254 254 254 254 253 252 251 250
246 246 246 247 247 248 249 250 251 252 252 253 254 255 256 257 259 260 261 262 264 264 266 266 265 262 259 256 255 255 255 255 255 255 255 255 255 255 255 254 253 252
243 244 244 245 246 248 249 250 251 252 253 255 256 257 258 260 261 262 263 264 265 267 268 269 269 268 265 262 259 257 257 257 256 256 256 256 256 255 255 255 254 254
243 243 244 246 247 249 251 253 254 255 256 257 259 260 261 262 263 264 265 266 267 269 271 271 272 272 271 268 265 262 260 259 258 258 257 257 256 256 255 255 255 255
248 248 248 250 252 254 256 257 258 259 259 260 261 262 262 262 264 265 266 268 269 271 272 273 273 272 272 270 267 264 262 260 260 259 258 258 257 257 256 255 255 255
255 255 255 255 256 257 257 257 258 258 259 260 260 261 261 262 264 266 267 268 269 269 270 271 271 270 269 269 267 266 264 262 261 260 260 259 258 257 257 256 256 255
259 258 257 255 254 254 253 254 255 255 257 258 258 259 260 262 263 265 266 266 267 267 268 268 268 268 267 267 267 267 265 264 263 262 261 260 260 259 258 257 257 256
259 256 255 253 252 252 253 253 254 255 256 257 258 259 261 262 263 264 264 265 266 267 267 268 268 268 268 268 268 268 267 266 264 263 262 261 261 260 259 258 257 257
256 255 254 254 254 254 255 255 256 257 258 259 260 261 262 263 264 264 265 266 268 268 269 269 269 269 270 270 269 269 268 266 265 264 263 262 261 260 260 259 258 258
256 257 256 256 257 258 258 259 260 261 262 263 263 264 265 266 266 267 268 269 270 270 270 270 270 271 271 270 270 269 268 267 266 265 264 263 262 262 261 260 259 258
257 258 260 263 264 265 266 267 267 268 269 270 269 269 268 268 269 269 269 270 270 270 271 272 272 272 272 271 271 270 269 268 267 266 265 264 264 263 262 261 260 259
259 263 269 272 273 273 273 273 274 276 276 276 275 273 272 272 272 272 271 271 271 272 273 273 273 273 273 273 272 271 271 270 269 268 267 266 265 264 263 262 262 261
258 262 264 267 268 268 269 271 273 274 275 276 276 276 276 276 275 275 274 273 273 273 274 274 274 274 274 273 273 272 271 270 269 268 267 266 266 265 264 263 263 262
250 252 254 257 259 260 261 264 266 268 270 273 274 275 276 275 275 275 275 276 276 276 277 277 277 276 275 274 273 272 271 270 269 268 268 267 266 265 265 265 264 263
249 252 254 255 255 256 256 258 262 265 268 271 273 274 274 274 275 276 276 277 278 277 277 278 278 278 277 277 275 273 271 270 269 269 268 268 267 267 266 266 264 263
252 256 259 258 256 256 257 259 263 266 269 270 272 273 273 274 275 275 275 276 276 276 277 278 278 279 278 277 275 273 271 269 269 269 268 268 267 267 266 265 263 261
255 258 261 261 259 259 259 262 264 266 267 269 270 271 273 273 274 274 275 275 276 277 278 278 278 278 277 276 275 273 271 269 268 267 266 266 266 266 266 264 262 261
253 256 260 261 261 260 261 262 264 265 266 267 269 271 272 273 275 275 276 278 279 279 279 279 279 279 277 276 275 274 272 270 268 266 266 266 267 266 265 264 262 261